FW4331 Weather Reports


time (UTC)temp
C
wind
direction
speed
KPH
gust
KPH
rain 1hr
cm
rain 24hr
cm
rain mn
cm
humidity
%
barometer
mb
20260901174555 34 62 3.2 16.1 0.00 0.00 0.00 40 1014.3
20260901173053 34 277 3.2 12.9 0.00 0.00 0.00 40 1014.1
20260901171554 34 333 3.2 11.3 0.00 0.00 0.00 43 1014.3
20260901170110 33 268 4.8 12.9 0.00 0.00 0.00 41 1014.4
20260901164550 33 333 4.8 14.5 0.00 0.00 0.00 44 1014.7
20260901163045 33 257 3.2 14.5 0.00 0.00 0.00 45 1014.7
20260901161542 33 321 3.2 8.0 0.00 0.00 0.00 46 1014.8
20260901160046 32 244 3.2 9.7 0.00 0.00 0.00 47 1015.0
20260901154537 32 2 1.6 9.7 0.00 0.00 0.00 48 1015.1
20260901153034 31 286 1.6 8.0 0.00 0.00 0.00 48 1015.3
20260901151532 31 312 4.8 9.7 0.00 0.00 0.00 49 1015.4
20260901150051 31 277 4.8 9.7 0.00 0.00 0.00 48 1015.7
20260901144528 31 285 3.2 8.0 0.00 0.00 0.00 47 1015.5
20260901143027 31 278 0.0 4.8 0.00 0.00 0.00 46 1015.6
20260901141552 30 246 0.0 6.4 0.00 0.00 0.00 45 1015.6
20260901140018 30 252 3.2 6.4 0.00 0.00 0.00 44 1015.4
20260901134511 28 262 1.6 4.8 0.00 0.00 0.00 47 1015.5
20260901133010 28 163 0.0 3.2 0.00 0.00 0.00 48 1015.6
20260901131502 27 160 0.0 0.0 0.00 0.00 0.00 49 1015.7
20260901130056 26 219 0.0 1.6 0.00 0.00 0.00 50 1015.9
20260901124604 26 205 1.6 6.4 0.00 0.00 0.00 50 1015.8
20260901123050 25 221 0.0 0.0 0.00 0.00 0.00 49 1015.8
20260901121600 23 233 0.0 0.0 0.00 0.00 0.00 42 1015.8
20260901120144 22 233 0.0 0.0 0.00 0.00 0.00 41 1015.8
20260901114543 22 233 0.0 0.0 0.00 0.00 0.00 41 1015.6
20260901113050 22 233 0.0 0.0 0.00 0.00 0.00 43 1015.4
20260901111537 -17 0.0 0.0 0.00 0.00 0.00 1015.2
20260901110036 -17 0.0 0.0 0.00 0.00 0.00 1015.3
20260901104538 -17 0.0 0.0 0.00 0.00 0.00 1015.3
20260901103032 -17 0.0 0.0 0.00 0.00 0.00 1015.2
20260901101529 -17 0.0 0.0 0.00 0.00 0.00 1015.1
20260901100027 -17 0.0 0.0 0.00 0.00 0.00 1015.1
20260901094530 -17 50 0.0 0.0 0.00 0.00 0.00 1015.0
20260901093019 22 55 0.0 0.0 0.00 0.00 0.00 42 1015.1
20260901091516 23 55 0.0 0.0 0.00 0.00 0.00 43 1015.2
20260901090014 23 55 0.0 0.0 0.00 0.00 0.00 42 1015.3
20260901084512 23 55 0.0 3.2 0.00 0.00 0.00 41 1015.4
20260901083010 23 66 0.0 0.0 0.00 0.00 0.00 41 1015.4
20260901081508 23 51 0.0 4.8 0.00 0.00 0.00 43 1015.4
20260901080005 23 88 0.0 0.0 0.00 0.00 0.00 45 1015.3
20260901074502 23 80 0.0 0.0 0.00 0.00 0.00 46 1015.4
20260901073100 23 80 0.0 0.0 0.00 0.00 0.00 46 1015.5
20260901071558 22 51 0.0 0.0 0.00 0.00 0.00 44 1015.7
20260901070057 23 51 0.0 0.0 0.00 0.00 0.00 42 1015.7
20260901064551 23 9 0.0 0.0 0.00 0.00 0.00 44 1015.8
20260901063106 23 6 0.0 0.0 0.00 0.00 0.00 43 1016.1
20260901061548 23 333 0.0 0.0 0.00 0.00 0.00 43 1016.0
20260901060044 23 333 0.0 0.0 0.00 0.00 0.00 43 1015.9
20260901054540 23 29 0.0 0.0 0.00 0.00 0.00 43 1016.1
20260901053050 23 72 0.0 0.0 0.00 0.00 0.00 42 1016.3
20260901051538 24 71 0.0 3.2 0.00 0.00 0.00 41 1016.2
20260901050033 23 88 0.0 0.0 0.00 0.00 0.00 44 1016.3
20260901044537 23 89 0.0 0.0 0.00 0.00 0.00 44 1016.3
20260901043028 23 88 0.0 0.0 0.00 0.00 0.00 46 1016.7
20260901041523 23 359 0.0 0.0 0.00 0.00 0.00 46 1016.7
20260901040020 23 329 0.0 0.0 0.00 0.00 0.00 46 1016.8
20260901034532 23 329 0.0 0.0 0.00 0.00 0.00 46 1016.9
20260901033016 23 329 0.0 0.0 0.00 0.00 0.00 45 1016.8
20260901031516 23 329 0.0 0.0 0.00 0.00 0.00 44 1016.8
20260901030013 23 329 0.0 0.0 0.00 0.00 0.00 44 1017.0
20260901024512 23 328 0.0 0.0 0.00 0.00 0.00 42 1016.9
20260901023009 23 328 0.0 0.0 0.00 0.00 0.00 40 1017.0
20260901021512 23 328 0.0 1.6 0.00 0.00 0.00 39 1016.9
20260901020008 23 328 0.0 0.0 0.00 0.00 0.00 45 1016.8
20260901014505 24 328 0.0 0.0 0.00 0.00 0.00 50 1016.7
20260901013003 24 328 0.0 0.0 0.00 0.00 0.00 52 1016.5
20260901011503 25 328 0.0 0.0 0.00 0.00 0.00 54 1016.5
20260901010059 25 329 0.0 0.0 0.00 0.00 0.00 57 1016.4
20260901004615 25 329 0.0 0.0 0.00 0.00 0.00 58 1016.3
20260901003056 26 328 0.0 0.0 0.00 0.00 0.00 60 1016.2
20260901001558 26 328 0.0 0.0 0.00 0.00 0.00 60 1016.2
20260831234549 26 328 0.0 0.0 0.00 0.00 0.00 60 1016.3
20260831233047 26 328 0.0 0.0 0.00 0.00 0.00 60 1016.2
20260831231546 27 328 0.0 1.6 0.00 0.00 0.00 59 1016.2
20260831230044 28 328 0.0 3.2 0.00 0.00 0.00 56 1016.2
20260831224539 28 337 1.6 4.8 0.00 0.00 0.00 54 1016.4
20260831223037 28 323 0.0 4.8 0.00 0.00 0.00 54 1016.6
20260831221538 28 182 0.0 0.0 0.00 0.00 0.00 55 1016.6
20260831220033 28 177 0.0 0.0 0.00 0.00 0.00 55 1016.7
20260831214535 28 177 0.0 3.2 0.00 0.00 0.00 53 1016.6
20260831213032 28 128 0.0 0.0 0.00 0.00 0.00 54 1016.6
20260831211528 28 128 0.0 0.0 0.00 0.00 0.00 56 1016.7
20260831210026 28 128 0.0 0.0 0.00 0.00 0.00 55 1016.9
20260831204524 28 127 0.0 0.0 0.00 0.00 0.00 55 1016.8
20260831203021 28 128 0.0 0.0 0.00 0.00 0.00 55 1016.7
20260831201520 28 131 0.0 3.2 0.00 0.00 0.00 53 1016.8
20260831200050 28 135 0.0 3.2 0.00 0.00 0.00 53 1016.9
20260831194515 29 131 0.0 1.6 0.00 0.00 0.00 52 1016.8
20260831193019 30 124 1.6 4.8 0.00 0.00 0.00 50 1017.0
20260831191510 30 145 0.0 4.8 0.00 0.00 0.00 51 1017.3
20260831190020 30 150 0.0 4.8 0.00 0.00 0.00 50 1017.4
20260831184506 30 329 0.0 6.4 0.00 0.00 0.00 50 1017.6
20260831183005 30 320 3.2 6.4 0.00 0.00 0.00 50 1017.5
20260831181503 29 181 3.2 6.4 0.00 0.00 0.00 51 1017.6
20260831180100 29 128 1.6 6.4 0.00 0.00 0.00 52 1017.5